Location: Hertford
(51.8000°N, 0.0667°W)
Time: 13:02:47
(UTC+00:00)

CZ-2C R/B - Pass Details

Date: 18 September 2020
Orbit: 785 x 870 km, 98.2° (Epoch: 22 October)

Event Time Altitude Azimuth Distance (km) Brightness Sun altitude
Rises 20:56:11 0° 9° (N) 3,403 6.2 -24.9°
Reaches altitude 10° 20:58:41 10° 2° (N) 2,477 5.6 -25.2°
Maximum altitude 21:03:41 37° 297° (WNW) 1,304 4.1 -25.8°
Drops below altitude 10° 21:08:44 10° 232° (SW) 2,502 5.2 -26.4°
Sets 21:11:17 0° 224° (SW) 3,442 5.9 -26.7°
